EW5186 Weather Reports


time (UTC)temp
C
wind
direction
speed
KPH
gust
KPH
rain 1hr
cm
rain 24hr
cm
rain mn
cm
humidity
%
barometer
mb
20260905041512 16 288 0.0 0.0 0.00 0.76 0.00 94 1011.8
20260905040056 16 288 0.0 0.0 0.00 0.76 0.76 94 1011.8
20260905034551 16 288 0.0 0.0 0.00 0.76 0.76 94 1011.6
20260905033032 16 288 0.0 0.0 0.00 0.76 0.76 93 1011.6
20260905031531 16 288 0.0 0.0 0.00 0.76 0.76 93 1011.6
20260905030012 16 288 0.0 0.0 0.00 0.76 0.76 92 1011.5
20260905024514 17 288 0.0 0.0 0.00 0.76 0.76 93 1011.4
20260905023053 17 288 0.0 0.0 0.00 0.76 0.76 93 1011.5
20260905021553 17 288 0.0 0.0 0.00 0.76 0.76 93 1011.5
20260905020039 17 288 0.0 0.0 0.00 0.76 0.76 92 1011.7
20260905014537 17 288 0.0 0.0 0.00 0.76 0.76 91 1011.5
20260905013039 17 288 0.0 0.0 0.00 0.76 0.76 92 1011.5
20260905011535 17 288 0.0 0.0 0.00 0.76 0.76 90 1011.5
20260905010042 18 288 0.0 0.0 0.00 0.76 0.76 89 1011.7
20260905004532 18 288 0.0 0.0 0.00 0.76 0.76 88 1011.8
20260905003042 18 288 0.0 0.0 0.00 0.76 0.76 88 1011.7
20260905001531 18 288 0.0 0.0 0.00 0.76 0.76 86 1011.6
20260905000016 19 288 0.0 0.0 0.00 0.76 0.76 84 1011.5
20260904234513 20 288 0.0 0.0 0.00 0.76 0.76 83 1011.2
20260904233015 20 288 0.0 0.0 0.00 0.76 0.76 81 1011.2
20260904231513 21 288 0.0 0.0 0.00 0.76 0.76 79 1011.2
20260904230015 22 288 0.0 0.0 0.00 0.76 0.76 75 1011.1
20260904224515 23 288 0.0 1.6 0.00 0.76 0.76 71 1011.2
20260904223008 24 142 0.0 3.2 0.00 0.76 0.76 68 1011.2
20260904221508 25 321 0.0 3.2 0.00 0.76 0.76 66 1011.1
20260904220050 26 307 0.0 3.2 0.00 0.76 0.76 63 1011.1
20260904214550 27 297 0.0 4.8 0.00 0.76 0.76 59 1011.0
20260904213032 27 297 0.0 4.8 0.00 0.76 0.76 56 1011.0
20260904211631 28 117 0.0 4.8 0.00 0.76 0.76 59 1011.0
20260904210020 28 223 0.0 8.0 0.00 0.76 0.76 57 1011.1
20260904204521 27 255 0.0 9.7 0.00 0.76 0.76 56 1011.1
20260904203019 27 212 1.6 11.3 0.00 0.76 0.76 56 1011.1
20260904201517 27 281 0.0 19.3 0.00 0.76 0.76 60 1011.3
20260904200017 28 64 1.6 12.9 0.00 0.76 0.76 57 1011.2
20260904194517 28 264 1.6 12.9 0.00 0.76 0.76 54 1011.2
20260904193032 27 39 0.0 9.7 0.00 0.76 0.76 60 1011.2
20260904191613 27 293 1.6 11.3 0.00 0.76 0.76 61 1011.3
20260904190057 26 231 3.2 12.9 0.00 0.76 0.76 59 1011.5
20260904184554 27 229 4.8 14.5 0.00 0.76 0.76 61 1011.6
20260904183036 27 248 1.6 12.9 0.00 0.76 0.76 59 1011.5
20260904181535 27 321 3.2 12.9 0.00 0.76 0.76 61 1011.4
20260904180018 27 216 1.6 12.9 0.00 0.76 0.76 60 1011.5
20260904174517 27 329 1.6 12.9 0.00 0.76 0.76 59 1011.2
20260904173000 27 314 3.2 12.9 0.00 0.76 0.76 60 1011.2
20260904171601 27 203 0.0 17.7 0.00 0.76 0.76 60 1011.3
20260904170045 27 274 3.2 14.5 0.00 0.76 0.76 64 1011.5
20260904164543 27 240 3.2 11.3 0.00 0.76 0.76 62 1011.7
20260904163043 27 39 1.6 14.5 0.00 0.76 0.76 65 1011.5
20260904161543 27 166 0.0 11.3 0.00 0.76 0.76 66 1011.6
20260904160039 27 245 1.6 14.5 0.00 0.76 0.76 68 1011.9
20260904154536 26 72 3.2 14.5 0.00 0.76 0.76 65 1012.2
20260904153045 26 231 1.6 12.9 0.00 0.76 0.76 70 1012.2
20260904151533 26 196 3.2 11.3 0.00 0.76 0.76 69 1012.2
20260904150023 26 280 3.2 14.5 0.00 0.76 0.76 70 1012.3
20260904144511 26 72 1.6 9.7 0.00 0.76 0.76 73 1012.3
20260904143111 25 267 6.4 19.3 0.00 0.76 0.76 74 1012.4
20260904141555 25 288 4.8 14.5 0.00 0.76 0.76 77 1012.4
20260904140103 25 198 3.2 12.9 0.00 0.76 0.76 78 1012.4
20260904134534 25 209 0.0 6.4 0.00 0.76 0.76 80 1012.3
20260904133031 25 316 1.6 9.7 0.00 0.76 0.76 83 1012.3
20260904131511 24 145 0.0 6.4 0.00 0.76 0.76 83 1012.4
20260904130018 24 60 0.0 1.6 0.00 0.76 0.76 86 1012.3
20260904124555 23 263 0.0 3.2 0.00 0.76 0.76 88 1012.3
20260904123045 23 38 0.0 3.2 0.00 0.76 0.76 92 1012.2
20260904121524 22 338 0.0 0.0 0.00 0.76 0.76 94 1012.2
20260904120031 22 334 0.0 0.0 0.00 0.76 0.76 97 1012.2
20260904114507 21 217 0.0 0.0 0.00 0.76 0.76 97 1012.1
20260904113006 20 209 0.0 0.0 0.00 0.76 0.76 97 1012.0
20260904111505 20 211 0.0 1.6 0.00 0.76 0.76 97 1011.9
20260904110005 20 211 0.0 0.0 0.00 0.76 0.76 96 1011.7
20260904104506 20 211 0.0 1.6 0.00 0.76 0.76 96 1011.5
20260904103003 20 211 0.0 0.0 0.00 0.76 0.76 96 1011.4
20260904101606 21 211 0.0 0.0 0.00 0.76 0.76 96 1011.4
20260904100059 21 211 0.0 0.0 0.03 0.76 0.76 97 1011.5
20260904094547 21 211 0.0 0.0 0.08 0.76 0.76 97 1011.5
20260904093048 21 211 0.0 0.0 0.48 0.76 0.76 97 1011.1
20260904091546 21 211 0.0 4.8 0.71 0.76 0.76 96 1011.1
20260904090044 21 244 0.0 0.0 0.71 0.71 0.71 96 1010.5
20260904084543 21 146 0.0 6.4 0.69 0.69 0.69 96 1010.5
20260904083041 21 334 0.0 9.7 0.25 0.25 0.25 96 1011.5
20260904081548 21 76 0.0 0.0 0.03 0.03 0.03 96 1011.1
20260904080043 21 75 0.0 0.0 0.00 0.03 0.00 96 1011.2
20260904074526 21 76 0.0 0.0 0.00 0.03 0.00 96 1011.3
20260904073026 21 76 0.0 0.0 0.00 0.03 0.00 96 1011.2
20260904071524 21 76 0.0 0.0 0.00 0.03 0.00 96 1011.3
20260904070024 21 76 0.0 0.0 0.00 0.81 0.00 96 1011.6
20260904064521 21 76 0.0 0.0 0.00 0.81 0.00 96 1011.7
20260904063121 21 75 0.0 0.0 0.00 0.81 0.00 96 1011.8
20260904061536 21 75 0.0 0.0 0.00 0.81 0.00 96 1011.7
20260904060021 21 76 0.0 0.0 0.00 0.89 0.00 96 1012.0
20260904054559 21 75 0.0 0.0 0.00 0.89 0.00 96 1012.1
20260904053103 21 76 0.0 0.0 0.00 0.89 0.00 96 1012.4
20260904051539 21 76 0.0 0.0 0.00 0.89 0.00 96 1012.5
20260904050036 21 76 0.0 0.0 0.00 0.89 0.00 96 1012.5
20260904044535 21 76 0.0 0.0 0.00 0.89 0.00 96 1012.5
20260904043028 21 75 0.0 0.0 0.00 0.89 0.00 96 1012.8